DW8427 Weather Reports


Display with metric or nautical units.
time (UTC)temp
F
wind
direction
speed
MPH
gust
MPH
rain 1hr
in
rain 24hr
in
rain mn
in
humidity
%
barometer
mb
20260502201609 69 213 2.0 6.0 0.00 0.00 0.00 59 1012.1
20260502200054 68 79 0.0 6.0 0.00 0.00 0.00 60 1012.2
20260502194551 67 122 0.0 5.0 0.00 0.00 0.00 62 1012.2
20260502193050 67 140 1.0 4.0 0.00 0.00 0.00 62 1012.4
20260502191549 66 220 0.0 3.0 0.00 0.00 0.00 66 1012.6
20260502190047 65 34 0.0 1.0 0.00 0.00 0.00 67 1012.8
20260502184559 64 83 0.0 2.0 0.00 0.00 0.00 67 1012.5
20260502183045 64 145 1.0 5.0 0.00 0.00 0.00 66 1012.6
20260502181542 64 116 0.0 2.0 0.00 0.00 0.00 67 1012.6
20260502163034 59 116 0.0 3.0 0.00 0.00 0.00 75 1012.2
20260502161535 59 101 0.0 2.0 0.00 0.00 0.00 76 1012.2
20260502151523 56 90 0.0 0.0 0.00 0.00 0.00 79 1011.9
20260502123008 54 134 0.0 0.0 0.00 0.00 0.00 79 1010.8
20260502121510 55 124 0.0 0.0 0.00 0.00 0.00 78 1010.8
20260502114510 55 122 0.0 1.0 0.00 0.00 0.00 78 1011.0
20260502113002 55 113 0.0 0.0 0.00 0.00 0.00 77 1011.0
20260502111601 55 115 0.0 0.0 0.00 0.00 0.00 77 1010.9
20260502104557 56 115 0.0 4.0 0.00 0.00 0.00 78 1011.0
20260502103101 56 110 0.0 2.0 0.00 0.00 0.00 79 1011.1
20260502101622 57 125 0.0 2.0 0.00 0.00 0.00 80 1011.1
20260502100114 57 101 0.0 2.0 0.00 0.00 0.00 80 1011.1
20260502071529 60 140 0.0 3.0 0.00 0.00 0.00 75 1011.4
20260502070033 61 132 0.0 4.0 0.00 0.00 0.00 74 1011.5
20260502064527 61 151 0.0 5.0 0.00 0.00 0.00 74 1011.4
20260502063030 62 120 1.0 5.0 0.00 0.00 0.00 74 1011.3
20260502061525 63 113 0.0 7.0 0.00 0.00 0.00 74 1011.4
20260502060024 64 134 1.0 5.0 0.00 0.00 0.00 73 1011.4
20260502054524 65 140 0.0 4.0 0.00 0.00 0.00 72 1011.4
20260502053024 66 134 0.0 2.0 0.00 0.00 0.00 71 1011.4
20260502051528 67 137 0.0 1.0 0.00 0.00 0.00 70 1011.4
20260502050022 67 127 0.0 1.0 0.00 0.00 0.00 70 1011.3
20260502044521 68 98 0.0 1.0 0.00 0.00 0.00 69 1011.2
20260502043021 69 110 0.0 1.0 0.00 0.00 0.00 67 1011.0
20260502041521 70 96 0.0 1.0 0.00 0.00 0.00 65 1010.9
20260502040032 71 155 0.0 0.0 0.00 0.00 0.00 62 1010.6
20260502034520 72 138 0.0 2.0 0.00 0.00 0.00 60 1010.3
20260502033019 73 139 0.0 0.0 0.00 0.00 0.00 61 1010.3
20260502031520 74 166 0.0 0.0 0.00 0.00 0.00 61 1010.1
20260502030018 76 165 0.0 0.0 0.00 0.00 0.00 61 1009.9
20260502024534 77 122 0.0 1.0 0.00 0.00 0.00 60 1009.8
20260502023018 78 86 0.0 2.0 0.00 0.00 0.00 59 1009.7
20260502021517 78 141 0.0 4.0 0.00 0.00 0.00 58 1009.7
20260502020016 79 144 0.0 4.0 0.00 0.00 0.00 57 1009.7
20260502014532 80 101 0.0 5.0 0.00 0.00 0.00 57 1009.7
20260502013016 80 113 1.0 7.0 0.00 0.00 0.00 55 1009.9
20260502011512 81 98 0.0 5.0 0.00 0.00 0.00 55 1010.0
20260502010012 81 118 0.0 4.0 0.00 0.00 0.00 54 1010.0
20260502004509 81 137 0.0 7.0 0.00 0.00 0.00 54 1010.0
20260502003008 81 86 0.0 8.0 0.00 0.00 0.00 53 1010.1
20260502001508 83 148 4.0 9.0 0.00 0.00 0.00 50 1010.1
20260502000105 84 238 0.0 2.0 0.00 0.00 0.00 46 1010.2
20260501234504 84 319 0.0 0.0 0.00 0.00 0.00 46 1010.3
20260501233002 84 138 0.0 4.0 0.00 0.00 0.00 47 1010.4
20260501231603 84 119 0.0 0.0 0.00 0.00 0.00 47 1010.5
20260501230100 83 154 0.0 3.0 0.00 0.00 0.00 48 1010.8
20260501224600 83 217 0.0 1.0 0.00 0.00 0.00 48 1011.0
20260501223108 83 112 0.0 3.0 0.00 0.00 0.00 48 1011.3
20260501221548 83 136 0.0 3.0 0.00 0.00 0.00 48 1011.6
20260501220046 82 166 0.0 4.0 0.00 0.00 0.00 51 1011.9
20260501214547 81 144 0.0 3.0 0.00 0.00 0.00 51 1012.0
20260501213048 81 306 0.0 2.0 0.00 0.00 0.00 50 1012.1
20260501211544 81 273 0.0 4.0 0.00 0.00 0.00 51 1012.1
20260501210048 82 252 0.0 1.0 0.00 0.00 0.00 50 1012.2
20260501204544 81 101 0.0 1.0 0.00 0.00 0.00 52 1012.4
20260501203055 81 150 0.0 1.0 0.00 0.00 0.00 51 1012.6